This demonstration page uses our WeatherBlox Daily Observations layout. Learn more.

Left ArrowRight Arrow

40.92945, -100.16068

Hourly Observations for September 8, 2017

Temp ( °F °C ) Dew Point ( °F °C ) Humidity (%) Winds ( mph kmh ) Pressure ( in mb ) Visibility ( mi km ) Precip ( " mm )
12:15 am 00:15 Partly Cloudy 64 17.5 54 12 70 70 E 5 7 29.97 1015 10 16 0.00 0.00
12:35 am 00:35 Partly Cloudy 60 15.5 54 12.2 81 81 E 5 7 30.00 1016 10 16 0.00 0.00
12:55 am 00:55 Partly Cloudy 59 15.1 54 12.1 82 82 E 6 9 30.00 1016 10 16 0.00 0.00
1:15 am 01:15 Clear 59 14.9 53 11.9 82 82 E 6 9 30.00 1016 10 16 0.00 0.00
1:35 am 01:35 Clear 58 14.5 53 11.6 83 83 E 5 7 30.00 1016 10 16 0.00 0.00
1:55 am 01:55 Clear 58 14.5 53 11.6 83 83 E 5 7 30.00 1016 10 16 0.00 0.00
2:15 am 02:15 Clear 58 14.3 53 11.5 83 83 E 3 6 30.00 1016 10 16 0.00 0.00
2:35 am 02:35 Clear 58 14.6 53 11.4 81 81 ESE 5 7 30.00 1016 10 16 0.00 0.00
2:55 am 02:55 Clear 57 13.8 52 11 83 83 E 3 6 30.00 1016 10 16 0.00 0.00
3:15 am 03:15 Clear 57 14 52 11.2 83 83 E 3 6 30.00 1016 10 16 0.00 0.00
3:35 am 03:35 Clear 57 13.9 52 11.3 84 84 ESE 3 6 30.00 1016 10 16 0.00 0.00
3:55 am 03:55 Clear 56 13.3 52 11 86 86 E 3 6 30.03 1017 10 16 0.00 0.00
4:15 am 04:15 Clear 56 13.2 52 11 87 87 E 3 6 30.03 1017 10 16 0.00 0.00
4:35 am 04:35 Clear 55 12.8 52 11 89 89 E 3 6 30.03 1017 10 16 0.00 0.00
4:55 am 04:55 Clear 55 12.7 52 10.9 89 89 E 5 7 30.03 1017 10 16 0.00 0.00
5:15 am 05:15 Clear 54 12.4 51 10.5 88 88 E 5 7 30.03 1017 10 16 0.00 0.00
5:35 am 05:35 Clear 54 12.2 51 10.7 91 91 ESE 5 7 30.03 1017 10 16 0.00 0.00
5:55 am 05:55 Clear 54 12 51 10.5 91 91 ENE 6 9 30.03 1017 10 16 0.00 0.00
6:15 am 06:15 Clear 54 12.1 51 10.6 91 91 E 7 11 30.03 1017 10 16 0.00 0.00
6:35 am 06:35 Clear 54 12.2 51 10.6 90 90 E 5 7 30.03 1017 10 16 0.00 0.00
6:55 am 06:55 Clear 53 11.8 51 10.3 91 91 Calm 30.03 1017 10 16 0.00 0.00
7:15 am 07:15 Sunny 52 11.2 49 9.7 91 91 E 3 6 30.03 1017 10 16 0.00 0.00
7:35 am 07:35 Sunny 53 11.8 51 10.5 92 92 E 5 7 30.03 1017 10 16 0.00 0.00
7:55 am 07:55 Sunny 54 12.1 51 10.6 91 91 Calm 30.03 1017 10 16 0.00 0.00
8:15 am 08:15 Sunny 56 13.1 53 11.6 91 91 Calm 30.03 1017 10 16 0.00 0.00
8:35 am 08:35 Sunny 58 14.7 55 12.8 88 88 Calm 30.00 1016 10 16 0.00 0.00
8:55 am 08:55 Sunny 62 16.4 56 13.2 82 82 Calm 30.00 1016 10 16 0.00 0.00
9:15 am 09:15 Sunny 65 18.3 53 11.4 64 64 Calm 29.97 1015 10 16 0.00 0.00
9:35 am 09:35 Sunny 67 19.5 54 12.1 62 62 Calm 29.97 1015 10 16 0.00 0.00
9:55 am 09:55 Sunny 70 20.9 53 11.9 57 57 Calm 29.97 1015 10 16 0.00 0.00
10:15 am 10:15 Sunny 71 21.5 53 11.9 54 54 Calm 29.97 1015 10 16 0.00 0.00
10:35 am 10:35 Sunny 72 22.3 56 13.2 56 56 Calm 29.97 1015 10 16 0.00 0.00
10:55 am 10:55 Sunny 73 23 55 12.9 53 53 Calm 29.97 1015 10 16 0.00 0.00
11:15 am 11:15 Sunny 75 23.9 55 12.9 50 50 Calm 29.97 1015 10 16 0.00 0.00
11:35 am 11:35 Sunny 77 25 56 13.5 49 49 ESE 3 6 29.94 1014 10 16 0.00 0.00
11:55 am 11:55 Sunny 77 25.2 56 13.6 49 49 ENE 5 7 29.94 1014 10 16 0.00 0.00
12:15 pm 12:15 Sunny 79 25.9 57 13.8 47 47 SE 3 6 29.94 1014 10 16 0.00 0.00
12:35 pm 12:35 Sunny 80 26.6 55 13 43 43 ESE 3 6 29.94 1014 10 16 0.00 0.00
12:55 pm 12:55 Sunny 80 26.8 57 14 45 45 E 7 11 29.94 1014 10 16 0.00 0.00
1:15 pm 13:15 Sunny 83 28.1 56 13.6 41 41 SE 9 15 29.91 1013 10 16 0.00 0.00
1:35 pm 13:35 Sunny 83 28.2 56 13.5 40 40 ESE 10 17 29.91 1013 10 16 0.00 0.00
1:55 pm 13:55 Sunny 84 28.9 56 13.2 38 38 ESE 9 15 29.91 1013 10 16 0.00 0.00
2:15 pm 14:15 Sunny 84 29.1 56 13.5 38 38 ESE 10 17 29.88 1012 10 16 0.00 0.00
2:35 pm 14:35 Sunny 85 29.4 56 13.6 38 38 ESE 12 19 29.88 1012 10 16 0.00 0.00
2:55 pm 14:55 Sunny 86 30 55 12.6 34 34 SE 18 30 29.88 1012 10 16 0.00 0.00
3:15 pm 15:15 Sunny 86 30 55 12.8 35 35 SE 14 22 29.88 1012 10 16 0.00 0.00
3:35 pm 15:35 Sunny 86 29.8 55 12.9 35 35 SSE 15 24 29.88 1012 10 16 0.00 0.00
3:55 pm 15:55 Sunny 86 30.1 56 13.2 35 35 SE 14 22 29.88 1012 10 16 0.00 0.00
4:15 pm 16:15 Sunny 87 30.3 53 11.7 32 32 SE 20 31 29.88 1012 10 16 0.00 0.00
4:35 pm 16:35 Sunny 86 30.2 52 11.3 31 31 SE 16 26 29.88 1012 10 16 0.00 0.00
4:55 pm 16:55 Sunny 86 29.9 52 11.1 31 31 SSE 14 22 29.88 1012 10 16 0.00 0.00
5:15 pm 17:15 Sunny 85 29.5 53 11.4 33 33 SSE 15 24 29.88 1012 10 16 0.00 0.00
5:35 pm 17:35 Sunny 85 29.7 52 11.1 32 32 SE 10 17 29.88 1012 10 16 0.00 0.00
5:55 pm 17:55 Sunny 86 29.8 51 10.3 30 30 SE 12 19 29.88 1012 10 16 0.00 0.00
6:15 pm 18:15 Sunny 85 29.2 52 11.2 33 33 SE 12 19 29.88 1012 10 16 0.00 0.00
6:35 pm 18:35 Sunny 84 28.8 53 11.9 35 35 SE 9 15 29.88 1012 10 16 0.00 0.00
6:55 pm 18:55 Sunny 83 28.2 54 12.4 38 38 SE 9 15 29.88 1012 10 16 0.00 0.00
7:15 pm 19:15 Sunny 81 27 57 13.7 44 44 ESE 7 11 29.91 1013 10 16 0.00 0.00
7:35 pm 19:35 Sunny 78 25.3 58 14.5 51 51 E 7 11 29.91 1013 10 16 0.00 0.00
7:55 pm 19:55 Sunny 76 24.7 58 14.6 53 53 E 7 11 29.91 1013 10 16 0.00 0.00
8:15 pm 20:15 Clear 74 23.5 59 14.8 58 58 ESE 7 11 29.94 1014 10 16 0.00 0.00
8:35 pm 20:35 Clear 73 22.8 58 14.6 60 60 ESE 9 15 29.94 1014 10 16 0.00 0.00
8:55 pm 20:55 Clear 73 22.5 58 14.3 60 60 ESE 8 13 29.94 1014 10 16 0.00 0.00
9:15 pm 21:15 Clear 73 22.7 56 13.6 57 57 ESE 9 15 29.94 1014 10 16 0.00 0.00
9:35 pm 21:35 Clear 73 22.5 56 13.3 56 56 SE 9 15 29.94 1014 10 16 0.00 0.00
9:55 pm 21:55 Clear 73 22.5 54 12.2 52 52 SE 9 15 29.94 1014 10 16 0.00 0.00
10:15 pm 22:15 Clear 73 23 51 10.7 46 46 SE 12 19 29.97 1015 10 16 0.00 0.00
10:35 pm 22:35 Clear 73 22.8 51 10.4 46 46 SE 12 19 29.97 1015 10 16 0.00 0.00
10:55 pm 22:55 Clear 71 21.8 51 10.8 50 50 SE 9 15 29.97 1015 10 16 0.00 0.00
11:15 pm 23:15 Clear 71 21.7 51 10.5 49 49 SE 10 17 29.97 1015 10 16 0.00 0.00
11:35 pm 23:35 Clear 71 21.5 51 10.4 49 49 SE 10 17 29.97 1015 10 16 0.00 0.00
11:55 pm 23:55 Clear 70 21.1 51 10.5 51 51 SE 9 15 29.97 1015 10 16 0.00 0.00

Powered by AerisWeather